Location: Lake Zurich
(42.1970°N, 88.0930°W)
Time: 04:31:51
(UTC-05:00)

Daily predictions for brighter satellites

Satellite Brightness Start Highest point End
(mag) Time Altitude Azimuth Time Altitude Azimuth Time Altitude Azimuth
Cosmos 2237 Rocket 4.4 00:22:05 15° W 00:24:55 20° NW 00:29:05 10° N
CZ-2C R/B 3.4 00:21:58 10° NNE 00:25:58 50° NNE 00:25:58 50° NNE
CZ-4C R/B 4.5 00:38:07 10° WNW 00:42:12 21° W 00:42:12 21° W
Nadezhda 1 Rocket 4.3 00:50:49 63° NNW 00:50:49 63° NNW 00:56:05 10° N
Cosmos 1943 4.2 00:58:32 41° NE 00:58:32 41° NE 01:02:14 10° NNE
ATLAS 2AS CENTAUR R/B 3.4 00:55:32 48° W 00:57:17 57° NW 01:05:18 10° NNE
NOSS 3-2 (A) 4.3 01:01:54 10° NNW 01:09:17 62° NE 01:11:09 50° E
ATLAS CENTAUR R/B 4.3 01:18:46 11° NW 01:19:00 11° NW 01:20:18 10° NNW
Cosmos 2369 Rocket 3.2 01:18:50 10° NNW 01:22:21 39° NW 01:22:21 39° NW
ATLAS 3B R/B 3.7 01:18:16 10° NW 01:22:22 34° WNW 01:22:22 34° WNW
Cosmos 1943 Rocket 2.8 01:26:08 10° NNW 01:30:31 53° N 01:30:31 53° N
Cosmos 2341 Rocket 4.4 01:29:06 10° NNW 01:34:11 56° NW 01:34:11 56° NW
Lacrosse 5 rocket 4.1 01:52:20 15° E 01:52:20 15° E 01:53:27 10° ENE
SL-08 R/B 4.5 01:52:01 10° N 01:57:52 78° N 01:57:52 78° N
USA 215 3.2 01:54:19 10° NE 02:00:37 72° ESE 02:00:37 72° ESE
COSMOS 2406 4.1 02:02:16 42° E 02:02:16 42° E 02:07:04 10° NE
Cosmos 1656 Rocket 4.0 02:02:29 10° NNW 02:07:22 61° NNE 02:07:22 61° NNE
Meteor 2-21 Rocket 4.4 02:03:00 10° N 02:09:01 79° ENE 02:09:01 79° ENE
Meteor 1-22 Rocket 4.4 02:10:22 10° N 02:15:29 64° NE 02:15:29 64° NE
Cosmos 1680 Rocket 3.9 02:16:50 63° NNE 02:16:50 63° NNE 02:21:15 10° NNE
Meteor 2-21 4.5 02:10:05 10° NNW 02:15:40 69° NW 02:15:40 69° NW
RESURS DK-1 4.0 02:21:41 33° NE 02:21:41 33° NE 02:24:04 10° NNE
CENTAUR R/B 3.7 02:13:45 10° NNW 02:21:23 54° NE 02:29:34 10° SE
NOSS 3-2 (C) 3.9 02:13:53 10° NW 02:21:24 71° WSW 02:22:05 68° SSW
Cosmos 2366 rocket 4.3 02:25:28 10° NNW 02:31:00 51° WNW 02:31:00 51° WNW
USA 267 4.1 02:27:08 10° ESE 02:33:23 50° NNE 02:39:38 10° NW
Resurs 1-4 Rocket 3.5 02:29:39 10° NE 02:34:10 28° E 02:35:17 26° ESE
COSMOS 2455 2.9 02:32:06 10° NNW 02:37:28 66° WNW 02:37:28 66° WNW
SL-16 R/B 3.2 02:39:58 25° SE 02:43:27 51° ENE 02:49:23 10° N
ARIANE 5 R/B 3.8 02:38:54 10° NNE 02:43:35 33° E 02:44:46 29° ESE
SL-08 R/B 3.5 02:47:22 68° NNW 02:47:22 68° NNW 02:51:35 10° NNW
NOSS 2-2 (D) 4.5 02:47:55 41° E 02:47:55 41° E 02:51:26 10° NE
NPP 3.5 02:42:15 10° NNE 02:47:41 88° E 02:47:51 85° S
NOSS 3-4 (A) 4.0 02:46:41 43° W 02:47:53 49° NW 02:54:13 10° NNE
NOSS 3-4 (C) 4.0 02:46:47 44° W 02:47:59 49° NW 02:54:20 10° NNE
Cosmos 1371 Rocket 4.0 02:42:57 10° NNW 02:48:22 83° ENE 02:48:38 80° ESE
Cosmos 1953 3.5 02:46:09 10° N 02:49:46 40° ENE 02:49:46 40° ENE
CZ-2D R/B 2.9 02:50:01 10° NNE 02:55:03 43° E 02:56:19 36° SE
IRS-P3 Rocket 4.5 02:51:46 10° N 02:57:09 78° WNW 02:57:24 76° WSW
Cosmos 921 Rocket 3.5 02:53:36 10° N 02:58:04 60° ENE 02:58:27 57° E
NOSS 2-2 (C) 3.7 03:05:48 67° ENE 03:05:48 67° ENE 03:09:58 10° NE
Cosmos 1758 Rocket 3.8 03:06:30 58° ESE 03:06:39 58° E 03:10:55 10° NNE
Meteor 1-21 4.1 03:06:18 64° WSW 03:06:46 67° WNW 03:12:22 10° N
Cosmos 1758 3.6 03:04:49 10° N 03:08:25 66° NNE 03:08:25 66° NNE
COSMOS 2487 4.4 03:10:22 24° ESE 03:10:24 24° E 03:13:18 10° NE
Cosmos 1271 Rocket 3.5 03:09:02 10° N 03:11:44 46° N 03:11:44 46° N
Cosmos 1943 Rocket 4.4 03:11:40 10° WNW 03:12:00 11° WNW 03:12:00 11° WNW
Cosmos 1818 3.5 03:14:38 63° SSW 03:15:31 82° ESE 03:21:00 10° NE
Cosmos 1805 4.1 03:14:48 10° NNW 03:17:32 41° NW 03:17:32 41° NW
Nadezhda 3 Rocket 4.4 03:19:59 43° WSW 03:21:03 46° WNW 03:27:09 10° N
Cosmos 1833 Rocket 4.2 03:21:59 17° SSE 03:25:14 29° ESE 03:29:58 10° NE
BREEZE-M DEB (TANK) 3.9 03:24:22 32° WNW 03:26:21 57° N 03:41:08 10° ENE
IRS-1C 4.3 03:22:14 10° N 03:27:29 58° WNW 03:28:29 50° WSW
Cosmos 1953 Rocket 3.4 03:28:15 71° SW 03:28:36 77° W 03:33:05 10° N
Lacrosse 5 rocket 1.9 03:28:02 51° WNW 03:28:43 57° NW 03:33:20 10° NE
Cosmos 2082 Rocket 3.4 03:27:15 20° SSE 03:30:28 35° ESE 03:35:36 10° NE
DNEPR-1 R/B 3.6 03:27:21 10° NNW 03:31:35 74° NE 03:36:03 10° SE
GEOS 3 Rocket 3.8 03:27:00 10° NE 03:32:18 67° SE 03:34:03 42° SSW
AQUA 4.4 03:30:14 10° N 03:34:39 39° WNW 03:35:04 38° W
UNK 3.6 03:34:25 59° SW 03:34:52 63° W 03:39:26 10° NNW
Cosmos 1624 Rocket 4.4 03:35:20 10° NW 03:40:11 41° WSW 03:40:11 41° WSW
Meteor 2-5 Rocket 4.4 03:37:49 19° SSE 03:41:47 55° E 03:47:29 10° NNE
USA 215 4.1 03:37:33 10° NE 03:43:36 42° NNW 03:47:57 18° W
COSMOS 2406 4.3 03:44:19 26° W 03:46:06 30° NW 03:51:08 10° N
Cosmos 1727 Rocket 4.0 03:45:02 25° S 03:48:49 85° E 03:55:02 10° N
COBE Rocket 3.8 03:44:08 10° N 03:49:10 74° WNW 03:50:58 39° SSW
Cosmos 1825 Rocket 4.4 03:49:03 32° W 03:49:12 32° WNW 03:53:10 10° NNW
Cosmos 389 Rocket 2.3 03:47:40 10° NNW 03:51:17 75° W 03:51:42 65° SSW
Cosmos 1378 3.8 03:49:57 29° SSE 03:51:33 51° E 03:55:12 10° NNE
Cosmos 2098 Rocket 2.3 03:49:29 10° N 03:51:55 59° NNW 03:51:55 59° NNW
Cosmos 2056 Rocket 4.2 03:49:25 10° NW 03:54:09 33° W 03:54:19 33° WSW
Spot 4 Rocket 4.4 03:49:21 10° N 03:54:18 46° WNW 03:55:56 35° WSW
Cosmos 1707 2.6 03:53:47 47° S 03:54:51 90° WNW 03:58:45 10° N
Meteor 1-16 Rocket 4.4 03:51:42 10° N 03:57:04 67° ENE 04:02:19 10° SSE
Cosmos 1153 Rocket 4.4 03:52:41 10° N 03:58:52 89° E 04:05:01 10° S
ADEOS Rocket 3.3 03:55:52 10° N 04:01:50 56° WNW 04:05:31 26° SW
Cosmos 1470 3.2 04:05:34 10° NNW 04:09:15 41° W 04:09:57 37° WSW
CENTAUR R/B 3.4 04:04:42 10° NW 04:12:07 43° WSW 04:19:53 10° S
Cosmos 1459 Rocket 4.3 04:07:21 10° N 04:13:32 69° E 04:19:46 10° SSE
Resurs 1-4 Rocket 2.8 04:09:15 10° N 04:14:03 37° WNW 04:16:22 25° WSW
USA 267 3.3 04:09:56 10° SSE 04:16:19 56° SW 04:22:45 10° NW
IRS-1D 4.4 04:13:04 10° N 04:17:43 34° WNW 04:20:05 23° WSW
Okean O Rocket 3.0 04:14:23 10° NNE 04:18:30 37° E 04:22:35 10° SSE
Orbus 7S? 2.6 04:15:24 10° NW 04:18:55 85° NE 04:21:30 10° SE
USA 161 1.5 04:18:45 43° SSW 04:19:22 55° W 04:22:09 10° NNW
ARIANE 5 R/B 3.5 04:18:02 10° N 04:22:38 32° WNW 04:25:07 21° WSW
Cosmos 1605 Rocket 4.5 04:19:18 10° NNW 04:24:57 38° W 04:29:03 17° SSW
Cosmos 1953 4.3 04:23:49 10° NW 04:25:29 14° WNW 04:25:29 14° WNW
UNKNOWN OBJECT B 3.5 04:22:41 10° N 04:26:27 40° WNW 04:28:21 24° SW
SL-16 R/B 3.5 04:25:03 21° SW 04:27:19 26° W 04:32:22 10° NW
Abrixas 4.2 04:25:45 10° NW 04:28:16 29° NNE 04:30:48 10° ENE
Cosmos 1452 Rocket 3.9 04:24:04 10° NW 04:28:56 39° WSW 04:33:47 10° S
Cosmos-2242 4.0 04:26:25 10° NNW 04:30:13 29° W 04:32:00 22° SW
Cosmos 1733 4.4 04:27:49 10° NW 04:30:49 22° W 04:31:18 22° W
Intercosmos 25 4.3 04:24:51 10° NNW 04:31:30 52° W 04:35:19 13° SSW
Meteor 1-24 Rocket 3.7 04:27:14 10° S 04:32:43 89° E 04:38:29 10° N
Delta 2 Rocket 4.4 04:33:16 18° SSW 04:33:16 18° SSW 04:35:32 10° SSE
CZ-2D R/B 3.3 04:30:37 10° N 04:34:52 25° WNW 04:37:38 17° WSW
MOS 1 Rocket 3.3 04:31:52 10° N 04:36:10 57° WNW 04:39:49 15° SSW
Tiangong 1 3.0 04:37:48 13° S 04:37:48 13° S 04:38:30 10° SSE
Cosmos 1697 Rocket 2.6 04:31:26 10° NNW 04:37:04 84° WSW 04:42:40 10° SSE
Cosmos 1420 Rocket 4.3 04:37:39 10° NNW 04:42:44 46° WSW 04:47:45 10° S
Cosmos 1842 Rocket 3.8 04:38:29 10° NNW 04:42:45 49° W 04:47:02 10° SSW
PSLV R/B 4.2 04:40:13 10° NNE 04:44:31 56° E 04:48:46 10° S
Timation 2 Rocket 4.1 04:38:25 10° SSW 04:45:07 88° ESE 04:51:34 10° NNE
COSMOS 2487 4.1 04:44:17 16° W 04:45:49 21° WNW 04:48:35 10° NNW
GENESIS II 4.3 04:42:14 10° NNW 04:46:13 81° ENE 04:50:07 10° SE
Cosmos 1048 Rocket 4.1 04:44:28 14° SW 04:48:49 57° WNW 04:53:52 10° NNE
Cosmos 2278 4.4 04:43:52 10° NW 04:48:53 32° WSW 04:53:52 10° SSW
Cosmos 2221 2.7 04:45:46 10° N 04:50:03 77° E 04:54:19 10° SSE
PSLV R/B 3.9 04:49:49 10° N 04:53:55 67° WNW 04:58:01 10° SSW
Cosmos 2100 Rocket 4.2 04:53:12 10° NNW 04:59:07 49° W 05:04:59 10° SSW
Cosmos 1110 Rocket 4.3 04:55:01 10° NNW 05:00:22 76° ENE 05:05:39 10° SSE
Cosmos 1656 4.1 04:56:02 10° NW 05:00:58 36° WSW 05:05:52 10° S
MTI 4.1 04:57:49 10° SSE 05:01:01 71° ENE 05:04:15 10° N
Cosmos 2173 Rocket 4.2 04:55:20 10° NNW 05:01:23 52° W 05:07:19 10° SSW
Cosmos 1674 3.5 04:58:42 10° S 05:02:23 53° E 05:06:08 10° NNE
Cosmos 2322 Rocket 4.0 04:58:20 10° N 05:03:35 37° ENE 05:08:49 10° SE
EO 1 Del DPAF 3.3 05:01:11 10° SSE 05:05:03 87° ENE 05:08:56 10° NNW
IRS-1C Rocket 4.1 05:02:09 10° NNE 05:07:27 84° WNW 05:12:43 10° SSW
Cosmos 972 Rocket 4.5 05:01:24 10° NNW 05:07:33 54° W 05:13:00 10° S
CZ-3 R/B 4.0 04:54:28 10° SW 05:08:22 23° S 05:14:08 10° SE
Lacrosse 5 rocket 3.7 05:05:40 10° WNW 05:08:52 18° NNW 05:12:03 10° NNE
Cosmos 1833 Rocket 3.3 05:03:41 10° SW 05:08:56 42° WNW 05:14:15 10° NNE
Cosmos 1980 Rocket 2.2 05:06:30 10° NNW 05:12:11 73° WSW 05:17:49 10° SSE
Cosmos 1184 Rocket 4.3 05:09:36 10° SSE 05:12:47 41° E 05:15:57 10° NNE
Cosmos 2082 Rocket 3.0 05:09:18 10° WSW 05:14:31 36° WNW 05:19:44 10° N
ADEOS II 2.2 05:09:24 10° N 05:14:37 63° WNW 05:19:47 10° SSW
ERS-2 4.1 05:15:36 10° NE 05:18:55 31° E 05:22:12 10° SSE
Cosmos 1864 Rocket 4.5 05:15:02 10° NNW 05:21:09 74° W 05:27:18 10° S
